KC0MWM-2 Weather Reports


Display with metric or nautical units.
time (UTC)temp
F
wind
direction
speed
MPH
gust
MPH
rain 1hr
in
rain 24hr
in
rain mn
in
humidity
%
barometer
mb
20260906194417 87 135 2.0 3.0 0.00 0.01 0.01 65 1016.8
20260906193417 87 135 2.0 4.0 0.00 0.01 0.01 64 1016.8
20260906192437 86 113 4.0 8.0 0.00 0.01 0.01 65 1016.7
20260906191437 86 113 2.0 3.0 0.00 0.01 0.01 66 1016.8
20260906190417 86 113 2.0 2.0 0.00 0.01 0.01 66 1016.9
20260906185417 86 135 2.0 3.0 0.00 0.01 0.01 67 1017.0
20260906184417 85 113 4.0 6.0 0.00 0.01 0.01 67 1017.1
20260906183417 85 135 3.0 6.0 0.00 0.01 0.01 67 1017.3
20260906182417 85 135 5.0 8.0 0.00 0.01 0.01 68 1017.6
20260906181417 85 90 2.0 4.0 0.00 0.01 0.01 66 1017.5
20260906180417 85 113 3.0 6.0 0.00 0.01 0.01 67 1017.6
20260906175437 84 135 3.0 6.0 0.00 0.01 0.01 66 1017.5
20260906174416 83 113 1.0 2.0 0.00 0.01 0.01 67 1017.6
20260906173416 82 135 4.0 8.0 0.00 0.01 0.01 68 1017.3
20260906172417 82 0.0 2.0 0.00 0.01 0.01 71 1017.3
20260906171416 81 135 2.0 4.0 0.00 0.01 0.01 71 1017.2
20260906170417 80 0.0 1.0 0.00 0.01 0.01 73 1017.2
20260906165416 79 135 2.0 6.0 0.00 0.01 0.01 76 1017.1
20260906164436 78 135 2.0 5.0 0.00 0.01 0.01 77 1017.0
20260906163416 78 135 2.0 3.0 0.00 0.01 0.01 77 1016.7
20260906162416 77 113 3.0 5.0 0.00 0.01 0.01 78 1016.8
20260906161416 76 113 3.0 5.0 0.00 0.01 0.01 79 1016.8
20260906160416 76 135 2.0 4.0 0.00 0.01 0.01 80 1016.8
20260906155416 75 158 2.0 3.0 0.01 0.01 0.01 81 1016.7
20260906154416 75 135 4.0 6.0 0.01 0.01 0.01 82 1016.5
20260906153416 74 135 2.0 4.0 0.01 0.01 0.01 85 1016.7
20260906152516 73 135 3.0 7.0 0.01 0.01 0.01 86 1016.3
20260906151416 73 0.0 1.0 0.01 0.01 0.01 86 1016.7
20260906150416 73 135 2.0 4.0 0.01 0.01 0.01 84 1016.9
20260906145436 74 158 5.0 8.0 0.00 0.00 0.00 80 1016.9
20260906144416 75 135 3.0 6.0 0.00 0.00 0.00 77 1017.1
20260906143436 75 113 1.0 1.0 0.00 0.00 0.00 77 1017.3
20260906142436 74 158 3.0 5.0 0.00 0.00 0.00 79 1017.6
20260906141416 74 158 1.0 4.0 0.00 0.00 0.00 81 1017.8
20260906140436 74 270 4.0 7.0 0.00 0.00 0.00 81 1017.8
20260906135416 74 248 1.0 2.0 0.00 0.00 0.00 83 1017.8
20260906134436 73 270 3.0 5.0 0.00 0.00 0.00 84 1017.9
20260906133416 73 315 2.0 4.0 0.00 0.00 0.00 85 1018.0
20260906132416 73 270 2.0 6.0 0.00 0.00 0.00 84 1018.2
20260906131416 73 315 3.0 6.0 0.00 0.00 0.00 84 1018.0
20260906130416 73 293 2.0 3.0 0.00 0.00 0.00 83 1018.0
20260906125416 74 315 2.0 5.0 0.00 0.00 0.00 82 1018.2
20260906124436 74 315 5.0 8.0 0.00 0.00 0.00 81 1018.3
20260906123416 74 293 6.0 9.0 0.00 0.00 0.00 80 1018.4
20260906122416 75 315 5.0 8.0 0.00 0.00 0.00 79 1018.8
20260906121416 76 293 5.0 8.0 0.00 0.00 0.00 78 1018.8
20260906120416 76 293 9.0 14.0 0.00 0.00 0.00 79 1018.6
20260906115416 77 293 6.0 15.0 0.00 0.00 0.00 80 1018.3
20260906114416 77 315 6.0 9.0 0.00 0.00 0.00 82 1018.1
20260906113416 77 315 7.0 10.0 0.00 0.00 0.00 82 1017.8
20260906112416 77 315 5.0 7.0 0.00 0.00 0.00 82 1017.6
20260906111416 77 293 4.0 6.0 0.00 0.00 0.00 81 1017.5
20260906110416 77 0.0 1.0 0.00 0.00 0.00 80 1017.4
20260906105416 77 293 3.0 6.0 0.00 0.00 0.00 79 1017.3
20260906104416 76 270 4.0 14.0 0.00 0.00 0.00 83 1017.7
20260906103416 76 180 2.0 5.0 0.00 0.00 0.00 81 1016.1
20260906102416 76 135 2.0 3.0 0.00 0.00 0.00 81 1015.9
20260906101416 77 158 1.0 2.0 0.00 0.00 0.00 80 1016.0
20260906100416 77 135 1.0 2.0 0.00 0.00 0.00 80 1016.0
20260906095416 77 135 3.0 4.0 0.00 0.00 0.00 80 1016.1
20260906094416 77 113 1.0 3.0 0.00 0.00 0.00 80 1016.0
20260906093416 77 158 1.0 2.0 0.00 0.00 0.00 81 1016.0
20260906092416 77 180 2.0 4.0 0.00 0.00 0.00 81 1016.0
20260906091415 77 135 1.0 2.0 0.00 0.00 0.00 80 1015.7
20260906090415 77 113 2.0 3.0 0.00 0.00 0.00 80 1015.7
20260906085415 77 158 1.0 2.0 0.00 0.00 0.00 80 1015.8
20260906084416 77 113 4.0 6.0 0.00 0.00 0.00 80 1015.9
20260906083415 78 135 1.0 2.0 0.00 0.00 0.00 80 1015.9
20260906082415 78 135 1.0 4.0 0.00 0.00 0.00 80 1016.1
20260906081415 78 135 1.0 2.0 0.00 0.00 0.00 79 1016.1
20260906080416 79 135 2.0 3.0 0.00 0.00 0.00 78 1016.0
20260906075415 79 135 1.0 3.0 0.00 0.00 0.00 77 1016.1
20260906074416 79 158 1.0 2.0 0.00 0.00 0.00 77 1016.1
20260906073415 79 135 3.0 4.0 0.00 0.00 0.00 76 1016.1
20260906072415 79 135 2.0 4.0 0.00 0.00 0.00 77 1016.0
20260906071415 79 135 1.0 2.0 0.00 0.00 0.00 77 1016.0
20260906070415 79 113 2.0 4.0 0.00 0.00 0.00 77 1015.9
20260906065435 80 113 3.0 5.0 0.00 0.00 0.00 77 1015.9
20260906064415 80 135 4.0 8.0 0.00 0.00 0.00 77 1015.9
20260906063415 80 135 2.0 3.0 0.00 0.00 0.00 78 1015.9
20260906062415 80 135 4.0 5.0 0.00 0.00 0.00 78 1015.5
20260906061415 80 135 3.0 5.0 0.00 0.00 0.00 78 1015.6
20260906060415 80 135 2.0 5.0 0.00 0.00 0.00 78 1015.7
20260906055415 80 135 3.0 4.0 0.00 0.00 0.00 78 1016.0
20260906054415 81 135 2.0 4.0 0.00 0.00 0.00 78 1016.0
20260906053417 81 135 3.0 6.0 0.00 0.00 0.00 77 1016.1
20260906052437 82 135 3.0 4.0 0.00 0.00 0.00 76 1016.0
20260906051417 82 135 2.0 3.0 0.00 0.00 0.00 76 1016.1
20260906050417 82 135 2.0 3.0 0.00 0.00 0.00 76 1016.1
20260906045416 82 113 1.0 3.0 0.00 0.00 0.00 77 1016.0
20260906044416 82 135 3.0 5.0 0.00 0.00 0.00 77 1016.1
20260906043436 82 135 3.0 4.0 0.00 0.00 0.00 77 1016.0
20260906042416 82 135 4.0 7.0 0.00 0.00 0.00 77 1016.0
20260906041436 83 135 3.0 6.0 0.00 0.00 0.00 76 1016.0
20260906040416 83 135 3.0 8.0 0.00 0.00 0.00 76 1016.1
20260906035416 83 135 3.0 6.0 0.00 0.00 0.00 75 1016.0
20260906034416 84 135 4.0 6.0 0.00 0.00 0.00 74 1015.8
20260906033416 84 135 3.0 7.0 0.00 0.00 0.00 74 1015.9
20260906032416 84 135 2.0 4.0 0.00 0.00 0.00 74 1015.7
20260906031416 85 135 2.0 5.0 0.00 0.00 0.00 73 1015.7
20260906030416 85 135 1.0 4.0 0.00 0.00 0.00 73 1015.5
20260906025416 85 135 2.0 5.0 0.00 0.00 0.00 73 1015.2
20260906024416 85 135 4.0 6.0 0.00 0.00 0.00 74 1015.0
20260906023416 85 158 1.0 3.0 0.00 0.00 0.00 75 1014.8
20260906022416 86 135 2.0 3.0 0.00 0.00 0.00 74 1014.8
20260906021416 86 135 2.0 5.0 0.00 0.00 0.00 74 1014.5
20260906020436 87 135 2.0 4.0 0.00 0.00 0.00 73 1014.6
20260906015436 87 135 3.0 7.0 0.00 0.00 0.00 72 1014.4
20260906014436 87 135 2.0 3.0 0.00 0.00 0.00 72 1014.2
20260906013416 87 135 1.0 2.0 0.00 0.00 0.00 72 1014.2
20260906012416 88 0.0 0.0 0.00 0.00 0.00 71 1014.1
20260906011416 88 135 1.0 3.0 0.00 0.00 0.00 70 1014.0
20260906010415 89 0.0 1.0 0.00 0.00 0.00 69 1014.0
20260906005415 89 0.0 2.0 0.00 0.00 0.00 67 1013.9
20260906004416 90 135 1.0 3.0 0.00 0.00 0.00 66 1014.1
20260906003436 91 135 2.0 3.0 0.00 0.00 0.00 65 1014.1
20260906002415 92 135 3.0 4.0 0.00 0.00 0.00 64 1014.1
20260906001415 92 135 1.0 2.0 0.00 0.00 0.00 63 1014.1
20260906000456 93 158 2.0 4.0 0.00 0.00 0.00 62 1014.0
20260905235415 93 135 1.0 2.0 0.00 0.00 0.00 61 1014.0
20260905234416 93 158 2.0 5.0 0.00 0.00 0.00 61 1014.0
20260905233415 93 135 5.0 9.0 0.00 0.00 0.00 60 1014.0
20260905232415 93 135 4.0 7.0 0.00 0.00 0.00 60 1014.0
20260905231415 94 113 4.0 7.0 0.00 0.00 0.00 60 1014.1
20260905230415 94 158 4.0 7.0 0.00 0.00 0.00 60 1014.1
20260905225415 94 113 4.0 8.0 0.00 0.00 0.00 62 1014.0
20260905224456 94 158 4.0 7.0 0.00 0.00 0.00 62 1014.2
20260905223415 94 135 6.0 9.0 0.00 0.00 0.00 62 1014.2
20260905222456 94 135 3.0 6.0 0.00 0.00 0.00 63 1014.4
20260905221415 93 158 4.0 8.0 0.00 0.00 0.00 64 1014.4
20260905220415 93 135 5.0 10.0 0.00 0.00 0.00 65 1014.4
20260905215415 92 158 5.0 8.0 0.00 0.00 0.00 66 1014.4
20260905214415 92 135 7.0 10.0 0.00 0.00 0.00 66 1014.5
20260905213435 92 135 3.0 7.0 0.00 0.00 0.00 67 1014.7
20260905212415 92 135 7.0 12.0 0.00 0.00 0.00 66 1014.9
20260905211417 92 90 8.0 14.0 0.00 0.00 0.00 66 1015.2
20260905210417 91 113 6.0 11.0 0.00 0.00 0.00 66 1015.4
20260905205417 91 113 8.0 14.0 0.00 0.00 0.00 66 1015.5
20260905204437 92 113 5.0 9.0 0.00 0.00 0.00 64 1015.7
20260905203417 91 113 6.0 11.0 0.00 0.00 0.00 66 1015.7
20260905202417 91 135 8.0 14.0 0.00 0.00 0.00 66 1015.7
20260905201417 90 113 6.0 9.0 0.00 0.00 0.00 68 1015.8
20260905200437 90 135 6.0 12.0 0.00 0.00 0.00 67 1015.9
20260905195417 90 113 5.0 10.0 0.00 0.00 0.00 69 1016.2